FW4089 Weather Reports


time (UTC)temp
C
wind
direction
speed
KPH
gust
KPH
rain 1hr
cm
rain 24hr
cm
rain mn
cm
humidity
%
barometer
mb
20190822110207 25 200 11.3 17.7 0.00 0.00 0.00 40 1024.9
20190822105706 25 223 6.4 17.7 0.00 0.00 0.00 40 1024.9
20190822105206 25 217 6.4 19.3 0.00 0.00 0.00 41 1024.8
20190822104706 25 221 6.4 19.3 0.00 0.00 0.00 41 1024.8
20190822104207 25 212 8.0 19.3 0.00 0.00 0.00 42 1024.9
20190822103706 25 213 9.7 17.7 0.00 0.00 0.00 41 1024.9
20190822103206 25 206 9.7 19.3 0.00 0.00 0.00 42 1024.9
20190822102707 25 168 6.4 19.3 0.00 0.00 0.00 43 1025.0
20190822102207 25 202 9.7 20.9 0.00 0.00 0.00 42 1025.0
20190822101708 25 203 8.0 20.9 0.00 0.00 0.00 42 1025.1
20190822101206 25 233 11.3 20.9 0.00 0.00 0.00 42 1025.1
20190822100706 25 149 4.8 16.1 0.00 0.00 0.00 42 1025.1
20190822100207 25 104 4.8 19.3 0.00 0.00 0.00 43 1025.2
20190822095707 24 109 3.2 19.3 0.00 0.00 0.00 44 1025.2
20190822095206 24 207 11.3 17.7 0.00 0.00 0.00 43 1025.3
20190822094706 25 176 8.0 17.7 0.00 0.00 0.00 44 1025.3
20190822094206 24 186 4.8 16.1 0.00 0.00 0.00 45 1025.3
20190822093706 24 227 8.0 16.1 0.00 0.00 0.00 44 1025.3
20190822093206 24 183 4.8 16.1 0.00 0.00 0.00 43 1025.3
20190822092707 24 183 9.7 22.5 0.00 0.00 0.00 44 1025.3
20190822092207 24 158 1.6 22.5 0.00 0.00 0.00 44 1025.4
20190822091706 24 212 1.6 22.5 0.00 0.00 0.00 45 1025.4
20190822091206 24 195 9.7 14.5 0.00 0.00 0.00 45 1025.4
20190822090707 24 206 4.8 11.3 0.00 0.00 0.00 46 1025.4
20190822090207 23 151 3.2 14.5 0.00 0.00 0.00 46 1025.4
20190822085707 23 296 4.8 14.5 0.00 0.00 0.00 49 1025.4
20190822085206 23 195 6.4 14.5 0.00 0.00 0.00 49 1025.4
20190822084706 23 193 1.6 14.5 0.00 0.00 0.00 51 1025.5
20190822084207 22 185 8.0 11.3 0.00 0.00 0.00 51 1025.5
20190822083705 23 192 6.4 11.3 0.00 0.00 0.00 51 1025.6
20190822083206 23 209 6.4 8.0 0.00 0.00 0.00 51 1025.5
20190822082706 22 190 3.2 9.7 0.00 0.00 0.00 52 1025.6
20190822082207 22 183 4.8 14.5 0.00 0.00 0.00 52 1025.5
20190822081706 22 130 1.6 14.5 0.00 0.00 0.00 54 1025.6
20190822081207 22 193 4.8 8.0 0.00 0.00 0.00 56 1025.6
20190822080706 22 183 1.6 8.0 0.00 0.00 0.00 57 1025.7
20190822080207 21 183 1.6 3.2 0.00 0.00 0.00 58 1025.6
20190822075707 21 183 0.0 4.8 0.00 0.00 0.00 60 1025.6
20190822075206 21 173 1.6 8.0 0.00 0.00 0.00 61 1025.6
20190822074706 20 173 0.0 8.0 0.00 0.00 0.00 61 1025.6
20190822074207 20 173 4.8 6.4 0.00 0.00 0.00 62 1025.6
20190822073707 20 137 3.2 3.2 0.00 0.00 0.00 64 1025.5
20190822073206 19 85 0.0 3.2 0.00 0.00 0.00 66 1025.4
20190822072706 18 85 0.0 3.2 0.00 0.00 0.00 67 1025.5
20190822072206 18 72 0.0 3.2 0.00 0.00 0.00 69 1025.5
20190822071706 18 71 0.0 3.2 0.00 0.00 0.00 71 1025.4
20190822071207 17 66 0.0 3.2 0.00 0.00 0.00 72 1025.4
20190822070707 17 66 0.0 4.8 0.00 0.00 0.00 73 1025.4
20190822070207 16 47 0.0 4.8 0.00 0.00 0.00 74 1025.4
20190822065707 16 44 1.6 4.8 0.00 0.00 0.00 76 1025.4
20190822065206 16 38 0.0 3.2 0.00 0.00 0.00 78 1025.4
20190822064706 15 31 0.0 3.2 0.00 0.00 0.00 79 1025.3
20190822064206 15 31 0.0 3.2 0.00 0.00 0.00 79 1025.3
20190822063705 15 31 1.6 3.2 0.00 0.00 0.00 80 1025.3
20190822063206 15 31 1.6 3.2 0.00 0.00 0.00 81 1025.3
20190822062707 15 30 0.0 3.2 0.00 0.00 0.00 82 1025.3
20190822062207 14 30 0.0 3.2 0.00 0.00 0.00 83 1025.3
20190822061706 14 30 0.0 3.2 0.00 0.00 0.00 85 1025.3
20190822061206 13 30 0.0 1.6 0.00 0.00 0.00 86 1025.3
20190822060706 13 51 1.6 3.2 0.00 0.00 0.00 88 1025.2
20190822060207 13 49 0.0 4.8 0.00 0.00 0.00 88 1025.2
20190822055706 12 49 0.0 4.8 0.00 0.00 0.00 89 1025.3
20190822055207 12 49 1.6 4.8 0.00 0.00 0.00 89 1025.2
20190822054706 12 49 1.6 4.8 0.00 0.00 0.00 90 1025.2
20190822054207 12 49 1.6 4.8 0.00 0.00 0.00 91 1025.2
20190822053707 11 51 3.2 4.8 0.00 0.00 0.00 92 1025.1
20190822053206 11 51 3.2 4.8 0.00 0.00 0.00 92 1025.1
20190822052707 11 51 1.6 3.2 0.00 0.00 0.00 93 1025.1
20190822052207 11 52 0.0 3.2 0.00 0.00 0.00 93 1025.0
20190822051706 11 52 1.6 3.2 0.00 0.00 0.00 93 1025.0
20190822051206 11 52 0.0 3.2 0.00 0.00 0.00 93 1025.0
20190822050706 11 52 0.0 3.2 0.00 0.00 0.00 93 1025.0
20190822050207 11 52 1.6 3.2 0.00 0.00 0.00 94 1025.0
20190822045706 10 52 1.6 4.8 0.00 0.00 0.00 94 1025.0
20190822045207 10 52 1.6 4.8 0.00 0.00 0.00 94 1025.0
20190822044706 10 52 3.2 4.8 0.00 0.00 0.00 94 1025.1
20190822044207 10 52 3.2 3.2 0.00 0.00 0.00 94 1025.1
20190822043706 10 52 1.6 3.2 0.00 0.00 0.00 94 1025.1
20190822043206 10 52 1.6 3.2 0.00 0.00 0.00 94 1025.2
20190822042706 10 52 1.6 3.2 0.00 0.00 0.00 94 1025.2
20190822042207 10 52 1.6 1.6 0.00 0.00 0.00 94 1025.3
20190822041708 10 52 0.0 1.6 0.00 0.00 0.00 94 1025.3
20190822041211 10 52 1.6 0.0 0.00 0.00 0.00 94 1025.2
20190822040721 10 52 0.0 0.0 0.00 0.00 0.00 94 1025.2
20190822040228 10 52 0.0 0.0 0.00 0.00 0.00 94 1025.2
20190822035706 10 52 0.0 0.0 0.00 0.00 0.00 94 1025.3
20190822035207 10 52 0.0 0.0 0.00 0.00 0.00 93 1025.3
20190822034706 10 52 0.0 0.0 0.00 0.00 0.00 93 1025.4
20190822034207 10 52 0.0 0.0 0.00 0.00 0.00 93 1025.3
20190822033706 10 52 0.0 0.0 0.00 0.00 0.00 93 1025.4
20190822033206 10 52 0.0 0.0 0.00 0.00 0.00 93 1025.3
20190822032707 10 52 0.0 0.0 0.00 0.00 0.00 93 1025.3
20190822032209 10 52 0.0 0.0 0.00 0.00 0.00 93 1025.4
20190822031708 10 52 0.0 0.0 0.00 0.00 0.00 92 1025.4
20190822031208 10 52 0.0 0.0 0.00 0.00 0.00 92 1025.4
20190822030708 10 52 0.0 0.0 0.00 0.00 0.00 92 1025.4
20190822030209 10 52 0.0 0.0 0.00 0.00 0.00 92 1025.3
20190822025708 10 52 0.0 0.0 0.00 0.00 0.00 92 1025.4
20190822025208 10 52 0.0 0.0 0.00 0.00 0.00 92 1025.4
20190822024707 10 52 0.0 0.0 0.00 0.00 0.00 92 1025.4
20190822024206 10 52 0.0 0.0 0.00 0.00 0.00 92 1025.4
20190822023705 10 52 0.0 0.0 0.00 0.00 0.00 92 1025.4
20190822023206 10 52 0.0 0.0 0.00 0.00 0.00 92 1025.4
20190822022706 10 52 0.0 0.0 0.00 0.00 0.00 91 1025.5
20190822022207 10 52 0.0 0.0 0.00 0.00 0.00 91 1025.5
20190822021706 10 52 0.0 0.0 0.00 0.00 0.00 91 1025.4
20190822021206 10 52 0.0 0.0 0.00 0.00 0.00 91 1025.4
20190822020707 10 52 0.0 0.0 0.00 0.00 0.00 91 1025.4
20190822020207 10 52 0.0 0.0 0.00 0.00 0.00 90 1025.4
20190822015707 11 52 0.0 0.0 0.00 0.00 0.00 90 1025.4
20190822015206 11 52 0.0 0.0 0.00 0.00 0.00 90 1025.4
20190822014707 11 52 0.0 0.0 0.00 0.00 0.00 90 1025.4
20190822014207 11 52 0.0 0.0 0.00 0.00 0.00 90 1025.5
20190822013706 11 52 0.0 0.0 0.00 0.00 0.00 90 1025.5
20190822013206 11 52 0.0 0.0 0.00 0.00 0.00 90 1025.5
20190822012706 11 52 0.0 0.0 0.00 0.00 0.00 90 1025.5
20190822012207 11 52 0.0 0.0 0.00 0.00 0.00 90 1025.5
20190822011706 11 52 0.0 0.0 0.00 0.00 0.00 90 1025.5
20190822011207 11 52 0.0 0.0 0.00 0.00 0.00 89 1025.4
20190822010707 11 52 0.0 0.0 0.00 0.00 0.00 89 1025.4
20190822010207 11 52 0.0 1.6 0.00 0.00 0.00 89 1025.4
20190822005706 11 52 0.0 3.2 0.00 0.00 0.00 89 1025.5
20190822005206 11 52 0.0 3.2 0.00 0.00 0.00 88 1025.5
20190822004706 11 52 0.0 3.2 0.00 0.00 0.00 89 1025.5
20190822004207 11 52 0.0 3.2 0.00 0.00 0.00 89 1025.6
20190822003706 11 52 0.0 3.2 0.00 0.00 0.00 89 1025.6
20190822003206 11 52 0.0 3.2 0.00 0.00 0.00 89 1025.6
20190822002707 11 52 0.0 3.2 0.00 0.00 0.00 88 1025.6
20190822002207 11 52 0.0 3.2 0.00 0.00 0.00 88 1025.7
20190822001706 11 52 1.6 0.0 0.00 0.00 0.00 87 1025.7
20190822001206 11 52 0.0 0.0 0.00 0.00 0.00 87 1025.8
20190822000706 11 52 0.0 0.0 0.00 0.00 0.00 87 1025.9
20190822000207 11 52 0.0 0.0 0.00 0.00 0.00 86 1025.8
20190821235707 12 52 0.0 0.0 0.00 0.00 0.00 86 1025.9
20190821235206 12 52 0.0 0.0 0.00 0.00 0.00 86 1025.9
20190821234706 12 52 0.0 0.0 0.00 0.00 0.00 85 1025.9
20190821234207 12 52 0.0 0.0 0.00 0.00 0.00 84 1025.9
20190821233706 12 52 0.0 0.0 0.00 0.00 0.00 84 1026.0
20190821233206 12 52 0.0 0.0 0.00 0.00 0.00 84 1026.0
20190821232706 12 52 0.0 3.2 0.00 0.00 0.00 84 1026.0
20190821232207 12 52 0.0 3.2 0.00 0.00 0.00 84 1026.0
20190821231706 12 52 0.0 3.2 0.00 0.00 0.00 84 1026.1
20190821231206 12 52 0.0 0.0 0.00 0.03 0.00 84 1026.1
20190821230705 12 52 0.0 1.6 0.00 0.03 0.00 84 1026.1
20190821230207 12 52 0.0 1.6 0.00 0.03 0.00 83 1026.1
20190821225705 12 52 0.0 1.6 0.00 0.03 0.00 83 1026.1
20190821225206 12 52 0.0 0.0 0.00 0.03 0.00 83 1026.1
20190821224706 13 52 0.0 1.6 0.00 0.03 0.00 83 1026.1
20190821224207 13 52 0.0 3.2 0.00 0.03 0.00 83 1026.2
20190821223706 13 52 0.0 3.2 0.00 0.03 0.00 83 1026.2
20190821223206 13 52 0.0 3.2 0.00 0.03 0.00 82 1026.3
20190821222706 13 52 1.6 1.6 0.00 0.03 0.00 82 1026.3
20190821222207 13 52 0.0 1.6 0.00 0.03 0.00 82 1026.4
20190821221708 13 52 0.0 1.6 0.00 0.03 0.00 82 1026.3
20190821221207 13 52 0.0 0.0 0.00 0.03 0.00 81 1026.4
20190821220706 13 52 0.0 0.0 0.00 0.03 0.00 80 1026.5
20190821220207 13 52 0.0 0.0 0.00 0.03 0.00 80 1026.5
20190821215706 13 52 0.0 0.0 0.00 0.03 0.00 79 1026.4
20190821215206 13 52 0.0 0.0 0.00 0.03 0.00 78 1026.5
20190821214706 13 52 0.0 0.0 0.00 0.03 0.00 78 1026.5
20190821214207 14 52 0.0 0.0 0.00 0.03 0.00 78 1026.5
20190821213707 14 52 0.0 0.0 0.00 0.03 0.00 77 1026.5
20190821213207 14 52 0.0 0.0 0.00 0.03 0.00 77 1026.5
20190821212706 14 52 0.0 0.0 0.00 0.03 0.00 77 1026.4
20190821212206 14 52 0.0 0.0 0.00 0.03 0.00 76 1026.4
20190821211706 14 52 0.0 0.0 0.00 0.03 0.00 76 1026.4
20190821211206 14 52 0.0 0.0 0.00 0.03 0.00 76 1026.3
20190821210706 15 52 0.0 0.0 0.00 0.03 0.00 76 1026.4
20190821210207 15 52 0.0 0.0 0.00 0.03 0.00 75 1026.4
20190821205705 15 52 0.0 0.0 0.00 0.03 0.00 75 1026.4
20190821205206 15 52 0.0 0.0 0.00 0.03 0.00 74 1026.4
20190821204706 15 52 0.0 0.0 0.00 0.03 0.00 74 1026.3
20190821204207 15 52 0.0 0.0 0.00 0.03 0.00 74 1026.3
20190821203706 15 52 0.0 0.0 0.00 0.03 0.00 73 1026.4
20190821203206 15 52 0.0 0.0 0.00 0.03 0.00 72 1026.4
20190821202706 15 52 0.0 0.0 0.00 0.03 0.00 71 1026.4
20190821202206 16 52 0.0 0.0 0.00 0.03 0.00 71 1026.4
20190821201706 16 52 0.0 0.0 0.00 0.03 0.00 69 1026.4
20190821201206 16 52 0.0 0.0 0.00 0.03 0.00 68 1026.5
20190821200706 16 52 0.0 0.0 0.00 0.03 0.00 67 1026.5
20190821200207 16 52 0.0 0.0 0.00 0.03 0.00 67 1026.5
20190821195706 17 52 0.0 0.0 0.00 0.03 0.00 66 1026.5
20190821195206 17 52 0.0 0.0 0.00 0.03 0.00 66 1026.5
20190821194706 17 52 0.0 0.0 0.00 0.03 0.00 65 1026.5
20190821194207 17 52 0.0 1.6 0.00 0.03 0.00 65 1026.6
20190821193706 17 52 0.0 1.6 0.00 0.03 0.00 64 1026.5
20190821193206 17 52 0.0 1.6 0.00 0.03 0.00 63 1026.5
20190821192707 17 52 0.0 0.0 0.00 0.03 0.00 63 1026.5
20190821192207 18 52 0.0 0.0 0.00 0.03 0.00 63 1026.6
20190821191706 18 52 0.0 0.0 0.00 0.03 0.00 62 1026.5
20190821191206 18 52 0.0 0.0 0.00 0.03 0.00 60 1026.5
20190821190706 18 52 0.0 0.0 0.00 0.03 0.00 60 1026.5
20190821190207 19 52 0.0 3.2 0.00 0.03 0.00 59 1026.5
20190821185707 19 52 0.0 4.8 0.00 0.03 0.00 58 1026.4
20190821185207 19 52 0.0 4.8 0.00 0.03 0.00 56 1026.3
20190821184706 20 52 1.6 4.8 0.00 0.05 0.00 55 1026.3
20190821184207 20 58 4.8 3.2 0.00 0.05 0.00 55 1026.1
20190821183706 20 55 1.6 3.2 0.00 0.08 0.00 55 1026.2
20190821183206 20 55 0.0 3.2 0.00 0.10 0.00 55 1026.2
20190821182706 20 55 0.0 3.2 0.00 0.13 0.00 54 1026.1
20190821182207 20 55 0.0 1.6 0.00 0.15 0.00 53 1026.1
20190821181706 21 55 1.6 3.2 0.00 0.15 0.00 52 1026.1
20190821181206 21 55 1.6 3.2 0.00 0.15 0.00 52 1026.1
20190821180706 21 55 1.6 3.2 0.00 0.15 0.00 51 1026.2
20190821180207 21 56 1.6 3.2 0.00 0.15 0.00 50 1026.2
20190821175706 21 56 1.6 4.8 0.00 0.15 0.00 49 1026.2
20190821175205 21 56 0.0 4.8 0.00 0.15 0.00 48 1026.0
20190821174705 21 58 1.6 4.8 0.00 0.15 0.00 48 1026.0
20190821174207 21 42 3.2 4.8 0.00 0.15 0.00 47 1026.0
20190821173705 21 310 0.0 4.8 0.00 0.15 0.00 48 1026.0
20190821173206 21 310 3.2 4.8 0.00 0.15 0.00 47 1026.0
20190821172707 21 338 1.6 4.8 0.00 0.15 0.00 47 1026.0
20190821172207 22 329 3.2 4.8 0.00 0.15 0.00 47 1026.0
20190821171705 22 282 1.6 4.8 0.00 0.15 0.00 47 1026.1
20190821171206 22 278 1.6 4.8 0.00 0.15 0.00 48 1026.2
20190821170706 22 358 3.2 6.4 0.00 0.15 0.00 48 1026.1
20190821170207 22 299 1.6 6.4 0.00 0.15 0.00 47 1026.1
20190821165706 22 299 3.2 6.4 0.00 0.15 0.00 46 1026.1
20190821165206 22 292 3.2 6.4 0.00 0.15 0.00 46 1026.1
20190821164706 22 283 3.2 6.4 0.00 0.15 0.00 46 1026.1
20190821164207 22 336 3.2 6.4 0.00 0.15 0.00 46 1026.2
20190821163707 22 305 3.2 8.0 0.00 0.15 0.00 45 1026.2
20190821163206 22 293 3.2 8.0 0.00 0.15 0.00 44 1026.3
20190821162706 22 348 0.0 8.0 0.00 0.15 0.00 44 1026.3
20190821162206 22 27 3.2 4.8 0.00 0.15 0.00 44 1026.4
20190821161708 22 271 1.6 8.0 0.00 0.15 0.00 44 1026.4
20190821161207 22 271 1.6 8.0 0.00 0.15 0.00 44 1026.4
20190821160706 22 309 3.2 8.0 0.00 0.15 0.00 44 1026.5
20190821160206 22 309 3.2 8.0 0.00 0.15 0.00 43 1026.5
20190821155706 23 8 3.2 8.0 0.00 0.15 0.00 42 1026.5
20190821155206 23 282 3.2 8.0 0.00 0.15 0.00 41 1026.6
20190821154705 23 207 4.8 9.7 0.00 0.15 0.00 41 1026.6
20190821154207 23 234 4.8 9.7 0.00 0.15 0.00 42 1026.6
20190821153705 23 197 0.0 9.7 0.00 0.15 0.00 42 1026.6
20190821153206 23 197 6.4 9.7 0.00 0.15 0.00 43 1026.6
20190821152706 23 233 6.4 9.7 0.00 0.15 0.00 43 1026.6
20190821152207 23 237 4.8 9.7 0.00 0.15 0.00 42 1026.7
20190821151706 23 137 1.6 9.7 0.00 0.15 0.00 42 1026.7
20190821151206 23 188 4.8 9.7 0.00 0.15 0.00 42 1026.7
20190821150706 22 244 3.2 9.7 0.00 0.15 0.00 42 1026.7
20190821150206 23 240 6.4 9.7 0.00 0.15 0.00 42 1026.6
20190821145706 23 250 6.4 9.7 0.00 0.15 0.00 43 1026.7
20190821145206 23 333 4.8 9.7 0.00 0.15 0.00 42 1026.8
20190821144706 23 233 3.2 9.7 0.00 0.15 0.00 42 1026.8
20190821144207 23 210 3.2 11.3 0.00 0.15 0.00 42 1026.8
20190821143707 23 243 1.6 11.3 0.00 0.15 0.00 41 1026.8
20190821143206 23 47 4.8 9.7 0.00 0.15 0.00 42 1026.8
20190821142705 23 275 0.0 11.3 0.00 0.15 0.00 42 1026.9
20190821142207 23 228 4.8 11.3 0.00 0.15 0.00 43 1026.9
20190821141706 23 0 4.8 11.3 0.00 0.15 0.00 43 1026.9
20190821141206 23 220 3.2 11.3 0.00 0.15 0.00 42 1027.0
20190821140706 23 226 6.4 11.3 0.00 0.15 0.00 42 1027.0
20190821140207 23 204 8.0 11.3 0.00 0.15 0.00 42 1026.9
20190821135706 23 231 4.8 9.7 0.00 0.15 0.00 42 1027.0
20190821135207 23 145 4.8 9.7 0.00 0.15 0.00 41 1027.0
20190821134706 23 216 3.2 9.7 0.00 0.15 0.00 42 1027.0
20190821134207 22 224 4.8 16.1 0.00 0.15 0.00 43 1027.0
20190821133706 22 240 1.6 16.1 0.00 0.15 0.00 43 1027.1
20190821133206 22 202 8.0 16.1 0.00 0.15 0.00 43 1027.1
20190821132705 22 274 3.2 8.0 0.00 0.15 0.00 43 1027.1
20190821132206 22 209 6.4 14.5 0.00 0.15 0.00 45 1027.2
20190821131706 22 351 1.6 14.5 0.00 0.15 0.00 46 1027.2
20190821131206 21 13 6.4 14.5 0.00 0.15 0.00 45 1027.3
20190821130707 22 247 6.4 11.3 0.00 0.15 0.00 47 1027.2
20190821130207 22 285 3.2 14.5 0.00 0.15 0.00 45 1027.3
20190821125707 22 217 6.4 16.1 0.00 0.15 0.00 45 1027.4
20190821125206 22 203 0.0 16.1 0.00 0.15 0.00 44 1027.3
20190821124707 22 223 6.4 16.1 0.00 0.15 0.00 45 1027.4
20190821124207 22 195 8.0 20.9 0.00 0.15 0.00 46 1027.3
20190821123707 21 358 4.8 20.9 0.00 0.15 0.00 47 1027.4
20190821123206 21 223 6.4 20.9 0.00 0.15 0.00 46 1027.4
20190821122707 21 213 4.8 11.3 0.00 0.15 0.00 47 1027.4
20190821122207 21 285 3.2 11.3 0.00 0.15 0.00 45 1027.4
20190821121706 21 336 1.6 11.3 0.00 0.15 0.00 46 1027.5
20190821121206 21 210 6.4 14.5 0.00 0.15 0.00 46 1027.5
20190821120706 21 209 6.4 16.1 0.00 0.15 0.00 47 1027.5
20190821120207 21 240 8.0 16.1 0.00 0.15 0.00 46 1027.4
20190821115707 21 281 4.8 16.1 0.00 0.15 0.00 44 1027.5
20190821115206 22 202 6.4 11.3 0.00 0.15 0.00 45 1027.5
20190821114707 22 68 0.0 9.7 0.00 0.15 0.00 46 1027.5
20190821114207 21 133 1.6 9.7 0.00 0.15 0.00 45 1027.6
20190821113705 21 235 3.2 14.5 0.00 0.15 0.00 45 1027.6
20190821113206 21 216 3.2 14.5 0.00 0.15 0.00 46 1027.7
20190821112706 21 240 6.4 14.5 0.00 0.15 0.00 47 1027.8
20190821112207 21 207 6.4 9.7 0.00 0.15 0.00 50 1027.8
20190821111707 21 204 4.8 9.7 0.00 0.15 0.00 50 1027.8
20190821111206 21 228 8.0 6.4 0.00 0.15 0.00 49 1027.9
20190821110707 21 100 1.6 11.3 0.00 0.15 0.00 50 1027.9